[[{"header":{"parameterUnit":"m.s-1","parameterCategory":2,"la1":30.2991,"la2":30.254,"lo1":-89.0895,"lo2":-89.0444,"dy":0.0017,"dx":0.0017,"nx":28,"ny":28,"refTime":"2023-10-28T09:00:00:Z","depth":"0","parameterNumber":2,"parameterNumberName":"U-component_of_CURRENTS"},"data":[0,0,0,0,0,0,0,0,0,0,0,0,0,0,0,0,0,0,0,0,0,0,0,0,0,0,0,0,0,0,0,0,0,0,0,0,0,0,0,0,0,0,0,0,0,0,0,0,0,0,0,0,0,0,0,0,0,0,-0.1843,-0.1843,0,-0.1799,-0.1799,-0.1798,-0.1739,-0.1738,-0.1737,-0.1736,-0.1691,-0.1691,-0.169,0,0,0,0,0,0,0,0,0,0,0,0,0,-0.1814,-0.1815,-0.1843,-0.1843,-0.1842,-0.1799,-0.1799,-0.1798,-0.1739,-0.1738,-0.1737,-0.1736,-0.1691,-0.1691,-0.169,0,0,0,0,0,0,0,0,0,0,0,0,0,-0.1803,-0.1816,-0.1843,-0.1809,-0.1805,-0.1799,-0.1799,-0.1798,-0.1739,-0.1738,-0.1736,-0.1735,-0.1691,-0.1691,-0.169,-0.1712,0,0,-0.1688,-0.1688,0,0,0,0,0,0,0,0,-0.1804,-0.1804,-0.1814,-0.1811,-0.1807,-0.1774,-0.1772,-0.1769,-0.1739,-0.1763,-0.1736,-0.1735,-0.1721,-0.1718,-0.171,-0.171,-0.1708,-0.1688,-0.1688,-0.1688,-0.1687,0,0,0,0,0,0,0,-0.1805,-0.1805,-0.1824,-0.1814,-0.181,-0.1774,-0.1772,-0.1771,-0.1748,-0.176,-0.1756,-0.1754,-0.1718,-0.1711,-0.1709,-0.1707,-0.1688,-0.1688,-0.1687,-0.1687,-0.1756,-0.1758,0,0,0,0,0,0,-0.1818,-0.1807,-0.1825,-0.1823,-0.1804,-0.1776,-0.1773,-0.1785,-0.1748,-0.1742,-0.1755,-0.1752,-0.1712,-0.1709,-0.1707,-0.1789,-0.1688,-0.1687,-0.1687,-0.1754,-0.1757,-0.1759,0,0,0,0,0,0,-0.1818,-0.1821,-0.1827,-0.1814,-0.1812,-0.1779,-0.1792,-0.1785,-0.1779,-0.1745,-0.1737,-0.1758,-0.1711,-0.1708,-0.1725,-0.1784,-0.1687,-0.1686,-0.1751,-0.1755,-0.1758,-0.1915,0,0,0,0,0,0,-0.1818,-0.1821,-0.1844,-0.1815,-0.1814,-0.1854,-0.1793,-0.1785,-0.1781,-0.1775,-0.1745,-0.1739,-0.171,-0.1726,-0.1724,-0.1781,-0.1686,-0.1749,-0.1753,-0.1757,-0.1907,-0.1924,-0.1938,0,0,0,0,0,-0.1817,-0.1867,-0.1846,-0.1849,-0.1844,-0.1856,-0.1854,-0.1822,-0.1782,-0.1807,-0.1777,-0.174,-0.1751,-0.1728,-0.1725,-0.1783,-0.1747,-0.1752,-0.1757,-0.1901,-0.192,-0.1937,0,0,0,0,0,0,-0.1853,-0.1865,-0.1841,-0.1887,-0.1881,-0.1848,-0.1867,-0.1833,-0.1826,-0.1817,-0.1768,-0.1763,-0.1799,-0.1768,-0.1743,-0.1814,-0.1743,-0.1748,-0.1854,-0.1872,-0.1887,-0.1901,-0.1685,0,0,0,0,0,-0.1875,-0.1918,-0.1905,-0.1935,-0.1941,-0.1901,-0.1901,-0.1879,-0.1862,-0.1856,-0.1837,-0.1817,-0.1818,-0.1825,-0.1819,-0.1861,-0.1823,-0.1895,-0.191,-0.1924,-0.1933,-0.1929,-0.1945,-0.1775,-0.1775,-0.1775,0,0,-0.1886,-0.1903,-0.192,-0.1947,-0.1934,-0.1966,-0.1899,-0.1913,-0.1942,-0.1855,-0.1898,-0.1869,-0.1839,-0.1886,-0.19,-0.1869,-0.1954,-0.193,-0.1942,-0.1943,-0.1936,-0.1952,-0.1967,-0.1779,-0.1778,-0.1778,0,0,-0.1936,-0.1956,-0.2005,-0.2018,-0.2025,-0.2021,-0.203,-0.2015,-0.2018,-0.2043,-0.1995,-0.2011,-0.2,-0.2012,-0.2007,-0.2104,-0.2029,-0.2091,-0.2189,-0.2186,-0.22,-0.2212,-0.2194,-0.2202,-0.2105,-0.2105,-0.2106,0,-0.1945,-0.1994,-0.2017,-0.2064,-0.2077,-0.2052,-0.2088,-0.2109,-0.2103,-0.211,-0.2078,-0.2078,-0.2069,-0.2123,-0.2162,-0.2144,-0.2106,-0.2125,-0.2207,-0.2218,-0.2227,-0.2205,-0.2213,-0.2114,-0.2113,-0.2112,-0.2111,0,-0.2023,-0.2056,-0.2088,-0.2145,-0.2184,-0.2206,-0.2239,-0.2274,-0.2261,-0.2256,-0.2294,-0.228,-0.2267,-0.2288,-0.2256,-0.2327,-0.2266,-0.2223,-0.2163,-0.2254,-0.2224,-0.223,-0.2125,-0.2122,-0.212,-0.2118,0,0,-0.2011,-0.2119,-0.2118,-0.2132,-0.2216,-0.2232,-0.2336,-0.2383,-0.2397,-0.2432,-0.2446,-0.2501,-0.2458,-0.2452,-0.2425,-0.2451,-0.2505,-0.2372,-0.2368,-0.2358,-0.2475,-0.2309,-0.2297,-0.2459,-0.2461,-0.2462,-0.2432,0,-0.2031,-0.211,-0.2187,-0.2242,-0.2264,-0.2324,-0.2405,-0.246,-0.2482,-0.2504,-0.2531,-0.2527,-0.2532,-0.2501,-0.2547,-0.2496,-0.2522,-0.2516,-0.2384,-0.2381,-0.2225,-0.2299,-0.2188,-0.2139,-0.2436,-0.2437,-0.2437,0,-0.2043,-0.2092,-0.2154,-0.2235,-0.2255,-0.2305,-0.2382,-0.2453,-0.2529,-0.2542,-0.2584,-0.2567,-0.2637,-0.2591,-0.2622,-0.2604,-0.2561,-0.2534,-0.2531,-0.2321,-0.2223,-0.2094,-0.2136,-0.2146,-0.2444,-0.2443,-0.2443,0,-0.1943,-0.2049,-0.2085,-0.2113,-0.2232,-0.2268,-0.2333,-0.243,-0.2455,-0.2539,-0.2517,-0.2617,-0.2586,-0.2619,-0.2581,-0.2592,-0.2562,-0.2561,-0.2384,-0.2371,-0.2224,-0.2193,-0.226,-0.2574,-0.2574,-0.2574,-0.2574,0,-0.1896,-0.1905,-0.202,-0.2023,-0.2039,-0.2177,-0.2196,-0.228,-0.2364,-0.2352,-0.2491,-0.2453,-0.2579,-0.2567,-0.2581,-0.2482,-0.2561,-0.2411,-0.2357,-0.2273,-0.2249,-0.2202,-0.2226,-0.2573,-0.2573,-0.2573,-0.2574,0,-0.1737,-0.1833,-0.1841,-0.1952,-0.1974,-0.1969,-0.2062,-0.2069,-0.219,-0.2173,-0.2188,-0.2308,-0.23,-0.239,-0.2407,-0.2408,-0.2323,-0.231,-0.2195,-0.2128,-0.1975,-0.201,-0.1961,-0.1911,-0.2148,-0.2144,-0.214,0,-0.1653,-0.1647,-0.1718,-0.1703,-0.1731,-0.1757,-0.1767,-0.1928,-0.1941,-0.2034,-0.1994,-0.2025,-0.1985,-0.1996,-0.2037,-0.2052,-0.21,-0.1946,-0.1965,-0.1957,-0.196,-0.199,-0.1957,-0.185,-0.1844,-0.1839,-0.1836,0,-0.1454,-0.1481,-0.1488,-0.147,-0.1462,-0.1472,-0.1508,-0.1502,-0.1669,-0.1673,-0.1654,-0.1638,-0.1649,-0.1637,-0.1682,-0.1683,-0.1896,-0.1843,-0.1887,-0.1772,-0.1762,-0.1687,-0.1881,-0.1794,-0.1798,-0.1801,-0.1804,-0.1805,-0.1262,-0.1216,-0.1239,-0.1214,-0.121,-0.1198,-0.1174,-0.1232,-0.1238,-0.1268,-0.1313,-0.1283,-0.1362,-0.1402,-0.141,-0.1435,-0.151,-0.1457,-0.1515,-0.1558,-0.147,-0.1546,-0.1354,-0.1356,-0.1357,-0.1358,-0.136,0,-0.1036,-0.1032,-0.099,-0.0981,-0.0934,-0.1007,-0.1012,-0.1001,-0.0969,-0.0985,-0.0969,-0.1012,-0.1023,-0.114,-0.121,-0.1181,-0.1209,-0.1189,-0.1275,-0.1267,-0.1375,-0.1321,-0.1049,-0.1049,-0.1049,-0.1049,-0.1049,-0.1049,-0.0912,-0.0832,-0.0849,-0.0735,-0.0732,-0.0667,-0.066,-0.066,-0.0677,-0.0657,-0.0689,-0.073,-0.0911,-0.1136,-0.1168,-0.1123,-0.1161,-0.1074,-0.1146,-0.1301,-0.1334,-0.1366,-0.1324,-0.1057,-0.1057,-0.0992,-0.0991,-0.0991]},{"header":{"parameterUnit":"m.s-1","parameterCategory":2,"la1":30.2991,"la2":30.254,"lo1":-89.0895,"lo2":-89.0444,"dy":0.0017,"dx":0.0017,"nx":28,"ny":28,"refTime":"2023-10-28T09:00:00:Z","depth":"0","parameterNumber":3,"parameterNumberName":"V-component_of_CURRENTS"},"data":[0,0,0,0,0,0,0,0,0,0,0,0,0,0,0,0,0,0,0,0,0,0,0,0,0,0,0,0,0,0,0,0,0,0,0,0,0,0,0,0,0,0,0,0,0,0,0,0,0,0,0,0,0,0,0,0,0,0,0.0269,0.0269,0,0.0315,0.0316,0.0316,0.0333,0.0333,0.0333,0.0332,0.0415,0.0417,0.0419,0,0,0,0,0,0,0,0,0,0,0,0,0,0.0203,0.0204,0.0269,0.0269,0.027,0.0315,0.0316,0.0316,0.0333,0.0333,0.0333,0.0332,0.0414,0.0417,0.042,0,0,0,0,0,0,0,0,0,0,0,0,0,0.0239,0.0205,0.0269,0.0283,0.0285,0.0315,0.0316,0.0317,0.0333,0.0333,0.0333,0.0332,0.0413,0.0416,0.042,0.0447,0,0,0.0431,0.0432,0,0,0,0,0,0,0,0,0.0237,0.0241,0.0281,0.0282,0.0284,0.0318,0.0323,0.0362,0.0333,0.0315,0.0332,0.0332,0.0386,0.0392,0.0401,0.0451,0.0455,0.0431,0.0433,0.0435,0.0436,0,0,0,0,0,0,0,0.0234,0.024,0.0287,0.0281,0.0284,0.0291,0.0296,0.033,0.0352,0.0317,0.0318,0.0323,0.0387,0.0397,0.0403,0.0456,0.0431,0.0434,0.0436,0.0438,0.054,0.054,0,0,0,0,0,0,0.0228,0.0237,0.0286,0.0289,0.0259,0.0292,0.0297,0.0308,0.0351,0.0357,0.0323,0.0323,0.0391,0.0399,0.0406,0.0438,0.0435,0.0438,0.044,0.0539,0.054,0.054,0,0,0,0,0,0,0.0227,0.0233,0.0284,0.0263,0.027,0.0293,0.0305,0.0309,0.0314,0.0356,0.0362,0.0324,0.0391,0.0401,0.0435,0.0441,0.044,0.0443,0.0538,0.0539,0.054,0.0504,0,0,0,0,0,0,0.0225,0.0232,0.0237,0.0263,0.0271,0.0294,0.0305,0.031,0.0318,0.0319,0.0359,0.0366,0.0392,0.0429,0.0438,0.0446,0.0446,0.0538,0.0539,0.054,0.0504,0.0503,0.0502,0,0,0,0,0,0.0223,0.0225,0.0237,0.0243,0.0278,0.0293,0.0298,0.0314,0.0318,0.0318,0.0349,0.0365,0.0443,0.0432,0.0443,0.0452,0.0537,0.0538,0.054,0.0505,0.0503,0.0502,0,0,0,0,0,0,0.0191,0.0228,0.0241,0.0254,0.027,0.0296,0.0298,0.031,0.0334,0.0333,0.0373,0.0383,0.0415,0.0441,0.0428,0.0486,0.0493,0.0496,0.0463,0.0462,0.0461,0.044,0.0449,0,0,0,0,0,0.0189,0.0203,0.0235,0.024,0.025,0.0274,0.0282,0.0291,0.0315,0.0324,0.0358,0.0394,0.0431,0.045,0.0484,0.0515,0.0517,0.0529,0.0528,0.0527,0.0518,0.0522,0.052,0.0545,0.0545,0.0545,0,0,0.0173,0.0198,0.0202,0.0234,0.0249,0.0251,0.0278,0.0283,0.0289,0.0332,0.0353,0.0392,0.0439,0.0472,0.0489,0.0493,0.0521,0.0529,0.0527,0.0519,0.0523,0.0521,0.0518,0.0546,0.0545,0.0545,0,0,0.0132,0.0174,0.0163,0.0181,0.0203,0.0228,0.0227,0.0257,0.0277,0.0304,0.0339,0.038,0.0433,0.047,0.0494,0.0511,0.0516,0.0524,0.0503,0.0508,0.0505,0.0503,0.0495,0.0493,0.0524,0.0524,0.0524,0,0.0107,0.0106,0.0159,0.0152,0.0161,0.0213,0.0196,0.0231,0.0267,0.0288,0.0304,0.0386,0.0432,0.0473,0.0484,0.0509,0.0502,0.05,0.0503,0.0501,0.05,0.0493,0.049,0.0522,0.0522,0.0522,0.0523,0,0.0053,0.0057,0.0052,0.007,0.0091,0.0086,0.0142,0.017,0.0209,0.0242,0.0293,0.0358,0.0401,0.0433,0.0467,0.0486,0.0481,0.0498,0.0499,0.0494,0.0488,0.0486,0.052,0.052,0.0521,0.0521,0,0,-0.0022,0.0006,0.0002,0.0001,0.0047,0.0056,0.0088,0.013,0.0143,0.0207,0.022,0.0314,0.0349,0.0379,0.0431,0.0451,0.0447,0.0466,0.0467,0.0444,0.0437,0.0522,0.0528,0.0454,0.0454,0.0453,0.0434,0,-0.0089,-0.0123,-0.008,-0.0101,-0.011,-0.0034,-0.001,0.0042,0.01,0.0133,0.0221,0.0256,0.0329,0.0344,0.0379,0.0428,0.044,0.0449,0.0456,0.0456,0.0522,0.0529,0.0544,0.0537,0.0433,0.0432,0.0432,0,-0.0164,-0.0171,-0.0209,-0.018,-0.0175,-0.017,-0.0114,-0.0086,-0.0005,0.0037,0.0097,0.0159,0.0222,0.0271,0.0345,0.034,0.0382,0.0421,0.0421,0.0511,0.0539,0.0528,0.0537,0.0633,0.0429,0.0429,0.0429,0,-0.0249,-0.0257,-0.0285,-0.0279,-0.0238,-0.0229,-0.02,-0.0124,-0.0088,-0.0031,-0.0007,0.0069,0.0113,0.0169,0.0301,0.0297,0.0374,0.0373,0.0485,0.049,0.0512,0.0521,0.0605,0.0403,0.0403,0.0403,0.0403,0,-0.0329,-0.035,-0.0329,-0.0342,-0.0356,-0.0307,-0.03,-0.0251,-0.0194,-0.0144,-0.0069,-0.0012,0.009,0.0174,0.0256,0.0387,0.034,0.0479,0.0496,0.0503,0.0511,0.0605,0.0643,0.0402,0.0402,0.0403,0.0403,0,-0.0399,-0.0397,-0.0418,-0.0399,-0.0393,-0.0398,-0.0347,-0.033,-0.0281,-0.022,-0.0204,-0.0084,0.0033,0.0151,0.0258,0.0348,0.0511,0.0502,0.0509,0.053,0.0715,0.075,0.0842,0.0899,0.058,0.0582,0.0584,0,-0.0435,-0.0457,-0.0453,-0.0457,-0.0445,-0.0442,-0.0424,-0.0373,-0.0334,-0.0231,-0.0195,-0.0083,0.0048,0.0236,0.0393,0.0528,0.0605,0.0624,0.0637,0.0738,0.0786,0.0807,0.0849,0.0633,0.0635,0.0637,0.0638,0,-0.0477,-0.0471,-0.0475,-0.0489,-0.0485,-0.0477,-0.0446,-0.0427,-0.034,-0.0264,-0.0138,-0.0044,0.0148,0.0346,0.0536,0.0614,0.0701,0.0665,0.0756,0.0835,0.0872,0.0931,0.0625,0.0653,0.0651,0.065,0.065,0.0649,-0.0482,-0.0491,-0.0489,-0.0496,-0.0498,-0.0484,-0.0461,-0.0383,-0.0297,-0.0139,-0.0086,0.0077,0.0299,0.0577,0.0691,0.0893,0.0851,0.0927,0.0955,0.0961,0.1051,0.0795,0.0867,0.0867,0.0866,0.0866,0.0866,0,-0.0475,-0.0477,-0.0489,-0.0495,-0.0494,-0.0493,-0.0442,-0.0373,-0.0225,-0.0091,0.0055,0.0275,0.0554,0.0754,0.1045,0.1165,0.1169,0.1207,0.1212,0.1236,0.0989,0.103,0.1158,0.1158,0.1158,0.1158,0.1158,0.1158,-0.0467,-0.0467,-0.0474,-0.0473,-0.0479,-0.0449,-0.0412,-0.0272,-0.0161,0.0082,0.0218,0.0284,0.0531,0.1081,0.138,0.1402,0.1498,0.1486,0.155,0.1357,0.1331,0.1307,0.1356,0.1551,0.1551,0.1773,0.1775,0.1777]}],[{"header":{"parameterUnit":"m.s-1","parameterCategory":2,"la1":30.2991,"la2":30.254,"lo1":-89.0895,"lo2":-89.0444,"dy":0.0017,"dx":0.0017,"nx":28,"ny":28,"refTime":"2023-10-28T09:00:00:Z","depth":"2","parameterNumber":2,"parameterNumberName":"U-component_of_CURRENTS"},"data":[0,0,0,0,0,0,0,0,0,0,0,0,0,0,0,0,0,0,0,0,0,0,0,0,0,0,0,0,0,0,0,0,0,0,0,0,0,0,0,0,0,0,0,0,0,0,0,0,0,0,0,0,0,0,0,0,0,0,-0.1373,-0.1374,0,-0.1409,-0.1409,-0.1408,-0.1339,-0.1337,-0.1336,-0.1334,-0.1234,-0.1232,-0.1231,0,0,0,0,0,0,0,0,0,0,0,0,0,-0.1344,-0.1343,-0.1373,-0.1375,-0.1376,-0.1409,-0.1409,-0.1408,-0.1339,-0.1337,-0.1335,-0.1334,-0.1234,-0.1232,-0.1231,0,0,0,0,0,0,0,0,0,0,0,0,0,-0.1356,-0.1343,-0.1373,-0.1352,-0.1351,-0.1409,-0.1409,-0.1408,-0.1339,-0.1337,-0.1335,-0.1333,-0.1235,-0.1233,-0.1231,-0.1261,0,0,-0.1224,-0.1223,0,0,0,0,0,0,0,0,-0.1355,-0.1356,-0.1354,-0.1354,-0.1353,-0.1376,-0.1362,-0.1355,-0.134,-0.1334,-0.1334,-0.1332,-0.1276,-0.1271,-0.127,-0.1256,-0.1252,-0.1224,-0.1223,-0.1222,-0.1221,0,0,0,0,0,0,0,-0.1355,-0.1355,-0.1378,-0.1356,-0.1355,-0.1376,-0.1373,-0.1361,-0.1307,-0.1334,-0.1332,-0.1352,-0.1273,-0.1273,-0.1267,-0.125,-0.1224,-0.1222,-0.1221,-0.122,-0.1262,-0.1264,0,0,0,0,0,0,-0.1367,-0.1354,-0.1377,-0.138,-0.136,-0.1378,-0.1375,-0.1363,-0.131,-0.1303,-0.1353,-0.1348,-0.1277,-0.127,-0.1263,-0.1309,-0.1222,-0.122,-0.1219,-0.126,-0.1263,-0.1265,0,0,0,0,0,0,-0.1365,-0.1367,-0.1375,-0.1377,-0.1381,-0.1381,-0.1368,-0.1365,-0.1369,-0.1328,-0.1316,-0.1363,-0.1275,-0.1266,-0.1267,-0.1304,-0.1219,-0.1217,-0.1257,-0.1261,-0.1264,-0.1391,0,0,0,0,0,0,-0.1363,-0.1365,-0.1362,-0.1377,-0.1381,-0.1424,-0.1371,-0.1367,-0.139,-0.1383,-0.1333,-0.132,-0.1273,-0.127,-0.1265,-0.1299,-0.1216,-0.1254,-0.1259,-0.1263,-0.1384,-0.1399,-0.1411,0,0,0,0,0,-0.1362,-0.1407,-0.136,-0.1365,-0.1374,-0.1427,-0.1431,-0.1418,-0.1392,-0.141,-0.1375,-0.1322,-0.1294,-0.1271,-0.1264,-0.1298,-0.1252,-0.1258,-0.1263,-0.1378,-0.1396,-0.1411,0,0,0,0,0,0,-0.1386,-0.1404,-0.1354,-0.1393,-0.1401,-0.1418,-0.1464,-0.1436,-0.1425,-0.1423,-0.1353,-0.1341,-0.1362,-0.1318,-0.1294,-0.1325,-0.1265,-0.1269,-0.1355,-0.1371,-0.1384,-0.1327,-0.1214,0,0,0,0,0,-0.1388,-0.1416,-0.1419,-0.144,-0.1466,-0.1456,-0.1477,-0.1464,-0.1464,-0.1457,-0.1422,-0.1392,-0.1381,-0.1364,-0.1354,-0.1367,-0.1336,-0.1386,-0.1399,-0.1411,-0.1361,-0.1367,-0.1376,-0.1283,-0.1283,-0.1282,0,0,-0.1398,-0.1415,-0.1424,-0.1447,-0.1463,-0.1494,-0.1463,-0.152,-0.1506,-0.145,-0.1446,-0.1449,-0.1401,-0.1421,-0.1424,-0.1382,-0.144,-0.1417,-0.1428,-0.137,-0.1373,-0.1382,-0.139,-0.1286,-0.1285,-0.1285,0,0,-0.1459,-0.1457,-0.1501,-0.1516,-0.1555,-0.1558,-0.1577,-0.16,-0.1576,-0.1586,-0.1546,-0.1553,-0.1542,-0.1502,-0.1481,-0.1558,-0.1525,-0.1587,-0.1589,-0.1599,-0.1606,-0.1611,-0.1658,-0.1666,-0.1577,-0.1578,-0.1578,0,-0.1461,-0.1487,-0.1523,-0.1564,-0.1578,-0.1587,-0.1615,-0.161,-0.1612,-0.1589,-0.1598,-0.1585,-0.1562,-0.1539,-0.1573,-0.1582,-0.1604,-0.1534,-0.1615,-0.1619,-0.1621,-0.1668,-0.1675,-0.1584,-0.1583,-0.1583,-0.1582,0,-0.1534,-0.1545,-0.1597,-0.162,-0.1651,-0.1695,-0.1693,-0.1714,-0.1707,-0.1668,-0.1671,-0.166,-0.1636,-0.166,-0.1635,-0.1652,-0.1674,-0.1649,-0.1569,-0.1638,-0.1684,-0.1689,-0.1594,-0.1591,-0.1589,-0.1588,0,0,-0.152,-0.1621,-0.1616,-0.1615,-0.1674,-0.1696,-0.1727,-0.1719,-0.1711,-0.1714,-0.1702,-0.1691,-0.169,-0.1663,-0.1662,-0.1658,-0.1742,-0.167,-0.1668,-0.1709,-0.1814,-0.1661,-0.1652,-0.1754,-0.1754,-0.1754,-0.1865,0,-0.1533,-0.1599,-0.1647,-0.1672,-0.1705,-0.1733,-0.1743,-0.1735,-0.1744,-0.1751,-0.1716,-0.1716,-0.1687,-0.1718,-0.1711,-0.174,-0.1749,-0.1715,-0.1742,-0.1742,-0.159,-0.1647,-0.1539,-0.161,-0.1869,-0.187,-0.187,0,-0.1547,-0.1586,-0.163,-0.1666,-0.1684,-0.1701,-0.1725,-0.1737,-0.1749,-0.1769,-0.1771,-0.1757,-0.1757,-0.1744,-0.1764,-0.1763,-0.1783,-0.1792,-0.1797,-0.1584,-0.1593,-0.1568,-0.1609,-0.1878,-0.1877,-0.1877,-0.1876,0,-0.1481,-0.1549,-0.1575,-0.1586,-0.1656,-0.1668,-0.1698,-0.1724,-0.1718,-0.1786,-0.1806,-0.1809,-0.1817,-0.1839,-0.1817,-0.1834,-0.1844,-0.1874,-0.1744,-0.1738,-0.1599,-0.1576,-0.1867,-0.1867,-0.1866,-0.1866,-0.1866,0,-0.1453,-0.1452,-0.1541,-0.1544,-0.1545,-0.1622,-0.1629,-0.1679,-0.1741,-0.1716,-0.1794,-0.177,-0.1837,-0.1826,-0.1851,-0.1786,-0.1867,-0.1726,-0.1732,-0.1649,-0.163,-0.1797,-0.1787,-0.187,-0.1869,-0.1868,-0.1868,0,-0.135,-0.1426,-0.1438,-0.1504,-0.152,-0.1512,-0.1571,-0.157,-0.1672,-0.1675,-0.1694,-0.1749,-0.1742,-0.1768,-0.181,-0.1783,-0.1776,-0.1725,-0.1628,-0.1615,-0.1687,-0.1683,-0.1657,-0.1652,-0.1648,-0.1644,-0.1641,0,-0.1297,-0.1307,-0.1365,-0.1359,-0.1381,-0.1401,-0.1405,-0.1519,-0.1529,-0.1603,-0.1579,-0.1595,-0.1538,-0.1556,-0.155,-0.1573,-0.163,-0.1469,-0.1425,-0.1644,-0.1655,-0.1658,-0.166,-0.1365,-0.136,-0.1356,-0.1353,0,-0.116,-0.1192,-0.1195,-0.1205,-0.1207,-0.1215,-0.1242,-0.1248,-0.1362,-0.1373,-0.1354,-0.1324,-0.1326,-0.1272,-0.1287,-0.1281,-0.1467,-0.1379,-0.1643,-0.1385,-0.1362,-0.1375,-0.1388,-0.1316,-0.132,-0.1323,-0.1325,-0.1326,-0.1016,-0.0988,-0.1014,-0.1007,-0.1018,-0.1014,-0.0989,-0.1026,-0.1027,-0.104,-0.1094,-0.1053,-0.1113,-0.1045,-0.1034,-0.1063,-0.1157,-0.1167,-0.1184,-0.1204,-0.1099,-0.1063,-0.0949,-0.095,-0.0951,-0.0952,-0.0953,0,-0.0829,-0.0832,-0.0812,-0.0816,-0.0785,-0.0853,-0.0858,-0.0827,-0.0782,-0.0811,-0.0796,-0.0755,-0.0738,-0.0813,-0.0793,-0.0807,-0.0858,-0.0793,-0.0879,-0.0913,-0.0944,-0.083,-0.0607,-0.0606,-0.0605,-0.0604,0,0,-0.0726,-0.0664,-0.0682,-0.0596,-0.0601,-0.0543,-0.0531,-0.0504,-0.0512,-0.0468,-0.0482,-0.0589,-0.0694,-0.0613,-0.0636,-0.0604,-0.0741,-0.0575,-0.0846,-0.0971,-0.1,-0.1145,-0.1003,0,0,0,0,0]},{"header":{"parameterUnit":"m.s-1","parameterCategory":2,"la1":30.2991,"la2":30.254,"lo1":-89.0895,"lo2":-89.0444,"dy":0.0017,"dx":0.0017,"nx":28,"ny":28,"refTime":"2023-10-28T09:00:00:Z","depth":"2","parameterNumber":3,"parameterNumberName":"V-component_of_CURRENTS"},"data":[0,0,0,0,0,0,0,0,0,0,0,0,0,0,0,0,0,0,0,0,0,0,0,0,0,0,0,0,0,0,0,0,0,0,0,0,0,0,0,0,0,0,0,0,0,0,0,0,0,0,0,0,0,0,0,0,0,0,0.0043,0.0044,0,0.0128,0.0129,0.0129,0.012,0.012,0.0119,0.0118,0.014,0.0141,0.0142,0,0,0,0,0,0,0,0,0,0,0,0,0,-0.0001,-0.0001,0.0043,0.0044,0.0046,0.0128,0.0129,0.0129,0.012,0.0119,0.0118,0.0118,0.0139,0.0141,0.0142,0,0,0,0,0,0,0,0,0,0,0,0,0,0.0039,-0.0001,0.0042,0.0056,0.0058,0.0128,0.0129,0.013,0.0121,0.0119,0.0118,0.0117,0.0139,0.0141,0.0143,0.018,0,0,0.0149,0.015,0,0,0,0,0,0,0,0,0.0037,0.004,0.0052,0.0055,0.0058,0.0117,0.0122,0.0145,0.0121,0.0091,0.0118,0.0116,0.0131,0.0134,0.0145,0.0181,0.0182,0.0149,0.015,0.0151,0.0152,0,0,0,0,0,0,0,0.0034,0.0037,0.0071,0.0054,0.0058,0.0102,0.0104,0.0127,0.0111,0.0093,0.0094,0.0113,0.0131,0.0143,0.0145,0.0182,0.0149,0.0151,0.0152,0.0153,0.0228,0.0228,0,0,0,0,0,0,0.0029,0.0034,0.0068,0.0074,0.0051,0.0103,0.0106,0.0095,0.0112,0.0116,0.0114,0.0113,0.014,0.0143,0.0146,0.0168,0.0151,0.0153,0.0154,0.0227,0.0228,0.0229,0,0,0,0,0,0,0.0028,0.003,0.0065,0.0062,0.007,0.0105,0.0093,0.0097,0.0107,0.013,0.0131,0.012,0.014,0.0143,0.0165,0.017,0.0154,0.0156,0.0226,0.0227,0.0228,0.0227,0,0,0,0,0,0,0.0025,0.0028,0.0023,0.0061,0.0071,0.0093,0.0095,0.01,0.0124,0.0122,0.0136,0.0137,0.0139,0.0162,0.0167,0.0172,0.0157,0.0225,0.0226,0.0228,0.0226,0.0228,0.023,0,0,0,0,0,0.0023,0.0025,0.0021,0.0027,0.0059,0.0094,0.0102,0.012,0.0125,0.0125,0.0141,0.0136,0.0174,0.0164,0.017,0.0176,0.0224,0.0226,0.0228,0.0225,0.0228,0.023,0,0,0,0,0,0,0.0003,0.0026,0.0022,0.0029,0.0052,0.0094,0.0115,0.0124,0.014,0.014,0.0151,0.0154,0.0174,0.0181,0.017,0.0203,0.0197,0.02,0.0193,0.0196,0.0197,0.0157,0.0159,0,0,0,0,0,-0.0003,-0.0006,0.0027,0.0027,0.0048,0.008,0.0101,0.0108,0.0132,0.0138,0.0153,0.017,0.019,0.0195,0.0213,0.0235,0.0242,0.0242,0.0244,0.0245,0.0218,0.026,0.0263,0.0234,0.0234,0.0234,0,0,-0.001,0.0002,0.0001,0.0023,0.005,0.0059,0.0087,0.0116,0.0107,0.014,0.0144,0.018,0.0199,0.0219,0.0229,0.0222,0.0259,0.0248,0.0248,0.0219,0.0262,0.0265,0.0267,0.0236,0.0235,0.0235,0,0,-0.003,-0.0012,-0.0023,-0.0003,0.0033,0.0055,0.0062,0.0103,0.0107,0.0128,0.0148,0.0183,0.0215,0.0226,0.0236,0.026,0.0272,0.0276,0.0248,0.0291,0.0293,0.0295,0.0312,0.0316,0.0272,0.0272,0.0272,0,-0.0043,-0.0056,-0.0017,-0.0019,0.0003,0.0048,0.0047,0.0059,0.0093,0.0113,0.0121,0.0194,0.021,0.0234,0.0235,0.026,0.0283,0.0238,0.0292,0.0294,0.0296,0.0313,0.0317,0.0272,0.0272,0.0272,0.0272,0,-0.0079,-0.0079,-0.0069,-0.007,-0.0046,-0.0029,0.0001,0.0021,0.0051,0.0076,0.0122,0.0159,0.02,0.0219,0.0228,0.0257,0.0269,0.0294,0.0282,0.0298,0.0316,0.032,0.0273,0.0273,0.0273,0.0273,0,0,-0.0133,-0.0105,-0.0104,-0.0102,-0.0066,-0.0048,-0.0043,-0.0009,0.0009,0.0049,0.008,0.0118,0.0165,0.0176,0.0211,0.0236,0.0273,0.0264,0.0266,0.0271,0.0358,0.0382,0.0388,0.0322,0.0322,0.0323,0.0367,0,-0.0173,-0.0191,-0.016,-0.0164,-0.0157,-0.0102,-0.0097,-0.0062,-0.0015,0.0028,0.008,0.0119,0.0139,0.0171,0.0201,0.0259,0.0283,0.0257,0.0348,0.0349,0.0362,0.0394,0.0362,0.04,0.0371,0.0371,0.0372,0,-0.0223,-0.0223,-0.0239,-0.0199,-0.0186,-0.0186,-0.013,-0.0121,-0.0051,-0.001,0.0049,0.0102,0.0138,0.0162,0.024,0.023,0.028,0.032,0.0325,0.034,0.038,0.0379,0.0408,0.0378,0.0378,0.0377,0.0377,0,-0.0283,-0.0269,-0.0281,-0.0272,-0.023,-0.0218,-0.0193,-0.0131,-0.0107,-0.0036,0.0002,0.0073,0.0107,0.0178,0.0257,0.0258,0.0351,0.0371,0.0434,0.0435,0.0417,0.0417,0.0424,0.0424,0.0424,0.0424,0.0423,0,-0.0333,-0.0337,-0.0311,-0.0316,-0.0314,-0.0267,-0.0247,-0.0206,-0.0144,-0.0102,-0.0029,0.0015,0.0115,0.0191,0.0259,0.0356,0.0358,0.0419,0.0452,0.0418,0.0417,0.0402,0.0398,0.0425,0.0425,0.0424,0.0424,0,-0.0389,-0.038,-0.0384,-0.0353,-0.0345,-0.0344,-0.0294,-0.027,-0.0215,-0.0161,-0.0142,-0.0032,0.0069,0.0171,0.0294,0.0354,0.0447,0.0483,0.0423,0.0448,0.0496,0.0493,0.0548,0.0549,0.055,0.0551,0.0552,0,-0.0421,-0.0433,-0.0418,-0.0423,-0.0409,-0.0398,-0.0383,-0.0321,-0.0286,-0.0183,-0.0155,-0.0048,0.0052,0.0228,0.0353,0.048,0.0482,0.0521,0.0512,0.0485,0.0511,0.0506,0.0501,0.0487,0.0487,0.0487,0.0487,0,-0.0461,-0.0455,-0.0453,-0.0467,-0.0464,-0.0455,-0.0425,-0.0407,-0.0317,-0.0258,-0.0151,-0.0067,0.0106,0.0255,0.0416,0.048,0.0497,0.0528,0.0533,0.0464,0.0432,0.0456,0.0453,0.0488,0.0488,0.0488,0.0488,0.0488,-0.048,-0.0489,-0.0485,-0.0493,-0.0497,-0.049,-0.0473,-0.0415,-0.0351,-0.0235,-0.0161,-0.0025,0.0113,0.0343,0.0452,0.0538,0.0541,0.0553,0.055,0.0548,0.0537,0.051,0.0576,0.0577,0.0577,0.0577,0.0578,0,-0.0491,-0.0491,-0.0504,-0.0513,-0.0519,-0.0513,-0.0476,-0.0435,-0.0342,-0.0242,-0.0129,0.0011,0.0193,0.0325,0.0473,0.057,0.0544,0.0567,0.0518,0.0517,0.0515,0.0501,0.0531,0.0532,0.0532,0.0532,0,0,-0.0495,-0.0501,-0.0503,-0.0518,-0.0526,-0.0514,-0.0489,-0.0412,-0.033,-0.0235,-0.0137,0.0016,0.019,0.0289,0.0401,0.0472,0.046,0.0463,0.0488,0.0414,0.0411,0.0494,0.0469,0,0,0,0,0]}],[{"header":{"parameterUnit":"m.s-1","parameterCategory":2,"la1":30.2991,"la2":30.254,"lo1":-89.0895,"lo2":-89.0444,"dy":0.0017,"dx":0.0017,"nx":28,"ny":28,"refTime":"2023-10-28T09:00:00:Z","depth":"4","parameterNumber":2,"parameterNumberName":"U-component_of_CURRENTS"},"data":[0,0,0,0,0,0,0,0,0,0,0,0,0,0,0,0,0,0,0,0,0,0,0,0,0,0,0,0,0,0,0,0,0,0,0,0,0,0,0,0,0,0,0,0,0,0,0,0,0,0,0,0,0,0,0,0,0,0,-0.0318,-0.0319,0,-0.0407,-0.0408,-0.0409,-0.0427,-0.0427,-0.0426,-0.0426,-0.0461,-0.0462,-0.0463,0,0,0,0,0,0,0,0,0,0,0,0,0,-0.02,-0.0201,-0.0318,-0.0319,-0.0321,-0.0407,-0.0408,-0.0409,-0.0427,-0.0427,-0.0426,-0.0426,-0.0461,-0.0462,-0.0463,0,0,0,0,0,0,0,0,0,0,0,0,0,-0.0262,-0.0202,-0.0318,-0.0343,-0.0347,-0.0407,-0.0408,-0.0409,-0.0427,-0.0427,-0.0426,-0.0426,-0.046,-0.0462,-0.0464,-0.0485,0,0,-0.0469,-0.047,0,0,0,0,0,0,0,0,-0.0259,-0.0266,-0.0338,-0.0342,-0.0346,-0.0409,-0.0379,-0.0433,-0.0427,-0.0393,-0.0426,-0.0426,-0.0441,-0.0445,-0.0458,-0.0487,-0.0488,-0.047,-0.0471,-0.0471,-0.0472,0,0,0,0,0,0,0,-0.0254,-0.0263,-0.0349,-0.034,-0.0344,-0.0363,-0.037,-0.039,-0.0415,-0.0396,-0.0398,-0.0414,-0.0442,-0.0456,-0.0459,-0.0489,-0.0469,-0.0471,-0.0472,-0.0473,-0.0543,-0.0544,0,0,0,0,0,0,-0.025,-0.0259,-0.0347,-0.0353,-0.0304,-0.0366,-0.0374,-0.0386,-0.0416,-0.0422,-0.0415,-0.0415,-0.0453,-0.0457,-0.046,-0.051,-0.0471,-0.0473,-0.0474,-0.0542,-0.0543,-0.0544,0,0,0,0,0,0,-0.0247,-0.0257,-0.0343,-0.0311,-0.0323,-0.0368,-0.0382,-0.0388,-0.042,-0.0432,-0.0435,-0.0443,-0.0453,-0.0457,-0.0482,-0.051,-0.0474,-0.0476,-0.0541,-0.0542,-0.0543,-0.0595,0,0,0,0,0,0,-0.0243,-0.0255,-0.0257,-0.031,-0.0325,-0.0384,-0.0383,-0.039,-0.0432,-0.0433,-0.0457,-0.0458,-0.0453,-0.048,-0.0484,-0.0512,-0.0477,-0.054,-0.0542,-0.0543,-0.0592,-0.0597,-0.0602,0,0,0,0,0,-0.0238,-0.0259,-0.0257,-0.0268,-0.0329,-0.0386,-0.0395,-0.0422,-0.0434,-0.0449,-0.0461,-0.0458,-0.0491,-0.0482,-0.0487,-0.0516,-0.054,-0.0541,-0.0543,-0.059,-0.0596,-0.0602,0,0,0,0,0,0,-0.0219,-0.0265,-0.0263,-0.0297,-0.0335,-0.039,-0.042,-0.0438,-0.0463,-0.0471,-0.0472,-0.0475,-0.0503,-0.0503,-0.0492,-0.0538,-0.0514,-0.0517,-0.0548,-0.0554,-0.0559,-0.0531,-0.0479,0,0,0,0,0,-0.0212,-0.0232,-0.0279,-0.0305,-0.0333,-0.0378,-0.0405,-0.0428,-0.0462,-0.0475,-0.0501,-0.0515,-0.0513,-0.0528,-0.0534,-0.0569,-0.0563,-0.0589,-0.0594,-0.0598,-0.0577,-0.0578,-0.0581,-0.0549,-0.0549,-0.0549,0,0,-0.0212,-0.024,-0.0251,-0.0301,-0.034,-0.0385,-0.0394,-0.0453,-0.0482,-0.0474,-0.0535,-0.0537,-0.0524,-0.0552,-0.0566,-0.0559,-0.0616,-0.06,-0.0604,-0.058,-0.058,-0.0583,-0.0585,-0.055,-0.055,-0.055,0,0,-0.0242,-0.0253,-0.0288,-0.0316,-0.0377,-0.0406,-0.0428,-0.0501,-0.0523,-0.0567,-0.0563,-0.0572,-0.061,-0.0597,-0.0589,-0.0625,-0.0636,-0.0648,-0.0661,-0.0663,-0.0665,-0.0667,-0.0714,-0.0719,-0.0658,-0.0658,-0.0658,0,-0.0273,-0.0299,-0.0308,-0.035,-0.0391,-0.042,-0.048,-0.0497,-0.0566,-0.0586,-0.0589,-0.062,-0.0615,-0.0617,-0.0623,-0.0635,-0.0657,-0.0642,-0.0669,-0.067,-0.0671,-0.0718,-0.0723,-0.0661,-0.0661,-0.066,-0.066,0,-0.0318,-0.0345,-0.038,-0.0434,-0.0458,-0.0529,-0.0552,-0.0589,-0.0623,-0.0639,-0.0668,-0.0657,-0.067,-0.0676,-0.0655,-0.0669,-0.0694,-0.0672,-0.0654,-0.0677,-0.0726,-0.073,-0.0665,-0.0664,-0.0663,-0.0662,0,0,-0.0415,-0.0429,-0.0449,-0.0472,-0.0524,-0.0564,-0.0593,-0.0645,-0.0676,-0.0699,-0.0744,-0.0712,-0.0713,-0.0702,-0.0696,-0.0686,-0.0723,-0.0688,-0.0687,-0.0734,-0.0776,-0.0732,-0.0733,-0.0719,-0.0719,-0.0719,-0.0826,0,-0.0491,-0.0582,-0.056,-0.0634,-0.0681,-0.0684,-0.0709,-0.0727,-0.0747,-0.079,-0.0751,-0.0781,-0.0722,-0.0747,-0.0721,-0.0722,-0.0729,-0.0698,-0.0744,-0.0745,-0.0702,-0.0733,-0.0718,-0.0829,-0.083,-0.0831,-0.0831,0,-0.0549,-0.0601,-0.0698,-0.073,-0.0759,-0.079,-0.0844,-0.0868,-0.0872,-0.0882,-0.0869,-0.0862,-0.0845,-0.08,-0.078,-0.0774,-0.0772,-0.0762,-0.0766,-0.0696,-0.0706,-0.0787,-0.0839,-0.0838,-0.0838,-0.0837,-0.0837,0,-0.0598,-0.0692,-0.0781,-0.0799,-0.0838,-0.087,-0.0902,-0.0904,-0.093,-0.0947,-0.0974,-0.0942,-0.0956,-0.0914,-0.0872,-0.0848,-0.0866,-0.0838,-0.0799,-0.0799,-0.0784,-0.078,-0.0824,-0.0824,-0.0824,-0.0823,-0.0823,0,-0.0665,-0.0729,-0.0814,-0.0843,-0.0931,-0.093,-0.0997,-0.1004,-0.103,-0.1038,-0.103,-0.1023,-0.0982,-0.098,-0.0925,-0.0877,-0.0912,-0.0798,-0.0809,-0.0813,-0.081,-0.0791,-0.0786,-0.0827,-0.0827,-0.0826,-0.0825,0,-0.0664,-0.0736,-0.0814,-0.0902,-0.0933,-0.0984,-0.1046,-0.1062,-0.1104,-0.1118,-0.1132,-0.1121,-0.1085,-0.1061,-0.1021,-0.0959,-0.0916,-0.0897,-0.0949,-0.0963,-0.0845,-0.0842,-0.0868,-0.0867,-0.0866,-0.0865,-0.0865,0,-0.0675,-0.0719,-0.0844,-0.087,-0.0909,-0.0988,-0.1005,-0.1073,-0.1075,-0.1133,-0.112,-0.1148,-0.1111,-0.1042,-0.1005,-0.0958,-0.0916,-0.0942,-0.0824,-0.0834,-0.0843,-0.0841,-0.0838,-0.0863,-0.0863,-0.0863,-0.0863,0,-0.0655,-0.0712,-0.0758,-0.0828,-0.087,-0.0928,-0.0969,-0.0993,-0.1036,-0.1119,-0.1073,-0.1057,-0.1036,-0.0975,-0.098,-0.0917,-0.0942,-0.0932,-0.0932,-0.0821,-0.0829,-0.0838,-0.0837,-0.086,-0.086,-0.086,-0.0861,0,-0.0617,-0.0648,-0.0697,-0.0751,-0.0797,-0.0807,-0.0872,-0.0872,-0.0915,-0.0992,-0.0968,-0.0969,-0.1004,-0.0955,-0.0928,-0.0901,-0.0853,-0.0817,-0.0822,-0.0825,-0.0752,-0.0753,-0.0768,0,0,0,0,0,-0.0558,-0.0562,-0.0602,-0.0641,-0.0682,-0.0711,-0.0789,-0.0846,-0.0937,-0.0877,-0.0927,-0.0884,-0.0851,-0.0856,-0.0807,-0.0891,-0.0854,-0.0834,-0.0815,-0.0844,-0.0847,-0.0759,0,0,0,0,0,0,-0.0495,-0.0525,-0.056,-0.0522,-0.0522,-0.0556,-0.0603,-0.0677,-0.0662,-0.076,-0.0735,-0.0827,-0.0793,-0.084,-0.0776,-0.0784,-0.0758,-0.0861,-0.0859,-0.0842,-0.0845,-0.0848,-0.0759,0,0,0,0,0]},{"header":{"parameterUnit":"m.s-1","parameterCategory":2,"la1":30.2991,"la2":30.254,"lo1":-89.0895,"lo2":-89.0444,"dy":0.0017,"dx":0.0017,"nx":28,"ny":28,"refTime":"2023-10-28T09:00:00:Z","depth":"4","parameterNumber":3,"parameterNumberName":"V-component_of_CURRENTS"},"data":[0,0,0,0,0,0,0,0,0,0,0,0,0,0,0,0,0,0,0,0,0,0,0,0,0,0,0,0,0,0,0,0,0,0,0,0,0,0,0,0,0,0,0,0,0,0,0,0,0,0,0,0,0,0,0,0,0,0,-0.0024,-0.0024,0,-0.0013,-0.0013,-0.0012,-0.0001,-0.0,-0.0,-0.0,-0.0026,-0.0027,-0.0028,0,0,0,0,0,0,0,0,0,0,0,0,0,-0.0061,-0.006,-0.0024,-0.0024,-0.0024,-0.0013,-0.0013,-0.0012,-0.0001,-0.0,-0.0,-0.0,-0.0026,-0.0027,-0.0028,0,0,0,0,0,0,0,0,0,0,0,0,0,-0.0046,-0.006,-0.0024,-0.0017,-0.0016,-0.0013,-0.0013,-0.0012,-0.0001,-0.0,-0.0,-0.0,-0.0026,-0.0027,-0.0028,-0.0039,0,0,-0.0032,-0.0032,0,0,0,0,0,0,0,0,-0.0047,-0.0045,-0.0018,-0.0017,-0.0017,-0.0008,-0.0035,-0.0023,-0.0001,-0.0006,-0.0,-0.0,-0.0024,-0.0026,-0.0022,-0.004,-0.0041,-0.0032,-0.0033,-0.0033,-0.0033,0,0,0,0,0,0,0,-0.0048,-0.0045,-0.0019,-0.0018,-0.0017,-0.0023,-0.0021,-0.0033,-0.0016,-0.0005,-0.0005,-0.0004,-0.0024,-0.0021,-0.0023,-0.0041,-0.0032,-0.0033,-0.0034,-0.0034,-0.0068,-0.0068,0,0,0,0,0,0,-0.0049,-0.0046,-0.0019,-0.0018,-0.0032,-0.0023,-0.002,-0.0011,-0.0015,-0.0016,-0.0005,-0.0004,-0.0019,-0.0022,-0.0024,-0.0025,-0.0033,-0.0034,-0.0035,-0.0067,-0.0068,-0.0068,0,0,0,0,0,0,-0.005,-0.0047,-0.002,-0.0033,-0.003,-0.0022,-0.0012,-0.0011,-0.0009,-0.0015,-0.0015,-0.0005,-0.0019,-0.0022,-0.0055,-0.0027,-0.0035,-0.0036,-0.0067,-0.0067,-0.0068,-0.0036,0,0,0,0,0,0,-0.0051,-0.0047,-0.0046,-0.0033,-0.003,-0.0022,-0.0012,-0.001,-0.0009,-0.0008,-0.0015,-0.0017,-0.0019,-0.0054,-0.0056,-0.0029,-0.0037,-0.0067,-0.0067,-0.0068,-0.0037,-0.0035,-0.0033,0,0,0,0,0,-0.0052,-0.0068,-0.0046,-0.0043,-0.0027,-0.0023,-0.0022,-0.0015,-0.0009,-0.0012,-0.0029,-0.0017,-0.0056,-0.0056,-0.0059,-0.003,-0.0067,-0.0067,-0.0068,-0.0037,-0.0035,-0.0033,0,0,0,0,0,0,-0.0085,-0.0068,-0.0044,-0.0051,-0.0033,-0.0021,-0.0035,-0.0017,-0.003,-0.0036,-0.0036,-0.0041,-0.005,-0.0058,-0.0057,-0.0043,-0.0052,-0.0053,-0.0028,-0.0026,-0.0024,0.0004,-0.0038,0,0,0,0,0,-0.0088,-0.0093,-0.0066,-0.0068,-0.0066,-0.0045,-0.0044,-0.0031,-0.0037,-0.0041,-0.0049,-0.0056,-0.0052,-0.0057,-0.0065,-0.0072,-0.0051,-0.0052,-0.005,-0.0048,-0.0029,0.0007,0.0014,-0.0069,-0.0069,-0.0069,0,0,-0.0101,-0.0092,-0.0094,-0.0076,-0.0067,-0.0054,-0.0045,-0.0047,-0.0023,-0.0045,-0.0047,-0.0058,-0.0056,-0.0057,-0.0059,-0.0061,-0.0015,-0.0049,-0.0047,-0.0028,0.0007,0.0016,0.0024,-0.0069,-0.0069,-0.0069,0,0,-0.0127,-0.0121,-0.0127,-0.0111,-0.0094,-0.0078,-0.0076,-0.0064,-0.005,-0.0049,-0.0052,-0.0049,-0.0062,-0.0044,-0.0034,-0.0031,-0.001,-0.0038,-0.0002,0.0032,0.004,0.0048,0.0087,0.0097,-0.0034,-0.0033,-0.0033,0,-0.0135,-0.013,-0.0128,-0.0119,-0.0107,-0.0086,-0.0073,-0.0053,-0.005,-0.0039,-0.0048,-0.0039,-0.0038,-0.0008,-0.0001,-0.0019,-0.0007,-0.0006,0.0038,0.0045,0.0052,0.0091,0.0102,-0.0032,-0.0032,-0.0032,-0.0032,0,-0.0153,-0.0141,-0.0151,-0.0121,-0.0111,-0.0106,-0.0069,-0.0062,-0.0044,-0.0016,0.0003,-0.0,0.0012,0.0019,0.0015,0.0064,0.0054,0.0035,0.004,0.0063,0.0101,0.0113,-0.003,-0.003,-0.0031,-0.0031,0,0,-0.0173,-0.0163,-0.0158,-0.0142,-0.0109,-0.0103,-0.007,-0.003,-0.0007,0.0013,0.0047,0.0074,0.0073,0.0083,0.0078,0.0115,0.0182,0.0097,0.0098,0.0149,0.0258,0.0199,0.0206,0.0161,0.0163,0.0165,0.0266,0,-0.0173,-0.0168,-0.0153,-0.013,-0.0124,-0.009,-0.0061,-0.0022,0.0009,0.0038,0.0078,0.0097,0.01,0.0098,0.0142,0.016,0.0212,0.0157,0.0217,0.0219,0.0175,0.0217,0.0171,0.0274,0.0277,0.0279,0.028,0,-0.0181,-0.0176,-0.0165,-0.0133,-0.0126,-0.0109,-0.0066,-0.0033,0.0026,0.005,0.009,0.0109,0.017,0.016,0.0252,0.0208,0.0248,0.0273,0.0277,0.0223,0.0181,0.0244,0.0301,0.0299,0.0298,0.0296,0.0295,0,-0.0202,-0.0177,-0.0173,-0.0161,-0.0126,-0.0114,-0.0092,-0.0039,-0.0014,0.0051,0.0068,0.0141,0.0166,0.0233,0.0285,0.0271,0.0378,0.0364,0.0361,0.0358,0.0367,0.0358,0.0454,0.0454,0.0453,0.0453,0.0453,0,-0.0204,-0.0199,-0.019,-0.0184,-0.0183,-0.0141,-0.0125,-0.009,-0.0037,-0.001,0.0061,0.0089,0.0183,0.0244,0.0302,0.036,0.0396,0.039,0.0385,0.0376,0.0367,0.0376,0.0365,0.0457,0.0456,0.0455,0.0455,0,-0.0228,-0.0216,-0.0221,-0.02,-0.0198,-0.0202,-0.0172,-0.0154,-0.0097,-0.006,-0.0041,0.0058,0.0139,0.0224,0.0334,0.0366,0.0435,0.0447,0.0441,0.043,0.0398,0.0388,0.0481,0.048,0.0479,0.0478,0.0477,0,-0.0243,-0.0249,-0.0256,-0.027,-0.0267,-0.0265,-0.026,-0.0202,-0.0176,-0.0086,-0.007,0.0022,0.0086,0.0212,0.0298,0.0417,0.0418,0.0466,0.0442,0.0418,0.0404,0.0395,0.0386,0.0476,0.0475,0.0475,0.0475,0,-0.0275,-0.0285,-0.0292,-0.0322,-0.0333,-0.0339,-0.0322,-0.0307,-0.0227,-0.0182,-0.0091,-0.0006,0.0082,0.0193,0.0275,0.0356,0.0442,0.0457,0.046,0.0438,0.0412,0.0398,0.039,0.0472,0.0472,0.0472,0.0473,0,-0.031,-0.0333,-0.0344,-0.0368,-0.0389,-0.0391,-0.0381,-0.0331,-0.0293,-0.0178,-0.0155,-0.0034,0.005,0.0161,0.0236,0.0306,0.0328,0.0353,0.0362,0.0367,0.0286,0.0234,0.0254,0,0,0,0,0,-0.0335,-0.0351,-0.0382,-0.0404,-0.0424,-0.0426,-0.0404,-0.0376,-0.0305,-0.0252,-0.0195,-0.0109,0.0029,0.01,0.016,0.0204,0.0325,0.0275,0.0354,0.0453,0.0457,0.0374,0,0,0,0,0,0,-0.0348,-0.0378,-0.0386,-0.0419,-0.0436,-0.0449,-0.0435,-0.0392,-0.0345,-0.0267,-0.0193,-0.0115,0.0015,-0.0016,0.0152,0.0178,0.0232,0.0353,0.0354,0.0451,0.0455,0.0458,0.0373,0,0,0,0,0]}]]